Location: Unspecified
(0.0000°N, 0.0000°E)
Time: 17:12:07
(UTC+00:00)

N. Korean satellite - Visible Passes

Search period start: 20 November 2017 00:00
Search period end: 30 November 2017 00:00
Orbit: 460 x 514 km, 97.2° (Epoch: 20 November)

Date Brightness Start Highest point End Pass type
(mag) Time Alt. Az. Time Alt. Az. Time Alt. Az.
20 Nov 6.9 18:06:56 10° SSE 18:10:10 38° E 18:13:23 10° N visible
21 Nov 10.0 19:18:52 10° WSW 19:20:01 11° W 19:21:08 10° W visible
22 Nov 8.8 18:53:37 10° SSW 18:56:35 27° W 18:59:33 10° NW visible
23 Nov 6.7 18:29:42 10° S 18:33:09 75° W 18:36:37 10° NNW visible
24 Nov 7.0 18:06:29 10° SSE 18:09:43 38° E 18:12:58 10° N visible
25 Nov 10.0 19:18:21 10° WSW 19:19:33 11° W 19:20:45 10° W visible
26 Nov 8.8 18:53:07 10° SSW 18:56:06 27° W 18:59:07 10° NW visible
27 Nov 6.7 18:29:12 10° S 18:32:40 76° W 18:36:09 10° NNW visible
29 Nov 10.0 19:17:44 10° WSW 19:19:02 12° W 19:20:20 10° W visible
